#timestamp,LO_Frequency,Hit,StdDev 
1456887615.7,286046997.6,N
1456887635.5,286046997.4,N
1456887655.3,286046999.0,N
1456887675.2,286046999.5,N
1456887695.9,286046998.6,N
1456887715.7,286047002.4,N
1456887735.6,286046999.9,N
1456887755.4,286047000.0,N
1456887775.2,286047000.0,N
1456887795.1,286047002.6,N
1456887796.0,286047002.6,N
1456887815.8,286047002.0,N
1456887835.6,286046999.8,N
1456887855.5,286047004.4,N
1456887875.3,286047003.4,N
1456887895.1,286047003.2,N
1456887915.8,286047003.2,N
1456887935.7,286047006.9,N
1456887955.5,286047006.2,N
1456887975.3,286047006.2,N
1456887995.2,286047008.3,N
1456888015.0,286047006.5,N
1456888015.9,286047006.5,N
1456888035.7,286047008.7,N
1456888055.6,286047010.5,N
1456888075.4,286047006.1,N
1456888095.2,286047007.6,N
1456888115.1,286047007.3,N
1456888116.0,286047007.3,N
1456888135.8,286047005.6,N
1456888155.6,286046999.8,N
1456888175.5,286047002.5,N
1456888195.3,286047002.0,N
1456888215.1,286047002.0,N
1456888235.9,286047007.3,N
1456888255.7,286047008.6,N
1456888275.5,286047012.1,Y
1456888295.4,286047009.7,P
1456888315.2,286047008.9,P
1456888335.0,286047006.5,N
1456888335.9,286047006.5,Y
1456888355.8,286047000.8,P
1456888375.6,286047000.1,N
1456888395.4,286047005.9,N
1456888415.3,286047007.4,N
1456888435.1,286047006.9,N
1456888436.0,286047006.9,N
1456888455.8,286047007.2,N
1456888475.6,286047003.4,N
1456888495.5,286047007.2,N
1456888515.3,286047007.3,N
1456888535.2,286047008.4,Y
1456888555.9,286047001.5,P
1456888575.7,286047005.8,N
1456888595.5,286047005.4,N
1456888615.4,286047002.3,N
1456888635.2,286047000.2,N
1456888655.0,286047001.9,N
1456888655.9,286047001.9,N
1456888675.8,286046999.7,N
1456888695.6,286046999.9,N
1456888715.4,286047002.5,N
1456888735.3,286047004.0,N
1456888755.1,286047005.3,N
1456888756.0,286047005.3,N
1456888775.8,286047004.5,N
1456888795.7,286047006.9,Y
1456888815.5,286047005.4,P
1456888835.3,286047001.4,N
1456888855.2,286047001.5,N
1456888875.9,286047004.4,N
1456888895.7,286047000.0,N
1456888915.6,286047002.2,N
1456888935.4,286047000.5,N
1456888955.2,286047001.0,N
1456888975.0,286046999.6,N
1456888976.0,286046999.6,N
1456888995.8,286046997.7,N
1456889015.6,286046999.5,N
1456889035.4,286046996.9,N
1456889055.3,286046998.0,N
1456889075.1,286046995.1,N
1456889095.8,286046995.1,N
1456889115.7,286046990.1,Y
1456889135.5,286046992.4,P
1456889155.3,286046991.1,N
1456889175.2,286046991.5,N
1456889195.0,286046990.6,N
1456889195.9,286046990.6,N
1456889215.7,286046989.0,Y
1456889235.6,286046995.9,P
1456889255.4,286046994.8,P
1456889275.2,286046992.7,P
1456889295.1,286046992.9,Y
1456889296.0,286046992.9,P
1456889315.8,286046997.9,P
1456889335.6,286046996.8,N
1456889355.5,286046997.9,N
1456889375.3,286046995.1,N
1456889395.1,286046993.6,Y
1456889415.9,286047000.0,P
1456889435.7,286046998.5,N
1456889455.5,286046999.5,N
1456889475.4,286047002.8,N
1456889495.2,286047002.7,N
1456889515.0,286046999.8,N
1456889515.9,286046999.8,N
1456889535.8,286046999.9,N
1456889555.6,286046999.3,N
1456889575.4,286046996.7,N
1456889595.3,286046998.3,N
1456889615.1,286047001.0,N
1456889616.0,286047001.0,N
1456889635.8,286047002.3,N
1456889655.7,286047003.7,N
1456889675.5,286047002.9,N
1456889695.3,286047005.6,N
1456889715.1,286047003.0,N
1456889735.9,286047003.7,N
1456889755.7,286047001.3,N
1456889775.5,286047004.1,N
1456889795.4,286046999.7,N
1456889815.2,286046998.2,N
1456889835.0,286046999.2,N
1456889835.9,286046999.2,N
1456889855.8,286046996.1,N
1456889875.6,286046992.1,Y
1456889895.4,286046991.1,P
1456889915.3,286046990.9,N
1456889935.1,286046991.6,N
1456889955.8,286046989.0,N
1456889975.7,286046988.8,N
1456889995.5,286046985.4,Y
1456890015.3,286046996.8,P
1456890035.2,286046997.5,N
1456890055.9,286046993.9,N
1456890075.7,286046993.3,Y
1456890095.6,286046999.8,P
1456890115.4,286047002.2,N
1456890135.2,286047001.0,N
1456890155.1,286047000.6,N
1456890156.0,286047000.6,N
1456890175.8,286047000.1,N
1456890195.6,286047002.3,N
1456890215.5,286047001.0,N
1456890235.3,286046997.0,N
1456890255.1,286046997.4,N
1456890275.8,286046995.1,N
1456890295.7,286046996.5,N
1456890315.5,286047000.9,N
1456890335.3,286047001.0,N
1456890355.2,286046997.0,N
1456890375.9,286046997.3,N
1456890395.7,286046996.3,N
1456890415.6,286046996.0,N
1456890435.4,286046995.4,N
1456890455.2,286046997.8,N
1456890475.1,286046999.6,N
1456890476.0,286046999.6,N
1456890495.8,286046997.3,N
1456890515.6,286046999.6,N
1456890535.5,286046995.7,N
1456890555.3,286046996.5,N
1456890575.1,286046998.9,N
1456890595.8,286046998.3,N
1456890615.7,286046997.3,N
1456890635.5,286046999.4,N
1456890655.3,286047001.8,N
1456890675.2,286047003.9,N
1456890695.9,286047005.6,N
1456890715.7,286047003.5,N
1456890735.6,286047005.0,N
1456890755.4,286047006.0,N
1456890775.2,286047005.4,N
1456890795.1,286047006.2,N
1456890796.0,286047006.2,N
1456890815.8,286047006.5,N
1456890835.6,286047007.8,N
1456890855.5,286047009.8,N
1456890875.3,286047013.6,Y
1456890895.1,286047013.6,P
1456890915.9,286047013.9,N
1456890935.7,286047012.9,N
1456890955.5,286047014.3,N
1456890975.4,286047015.8,Y
1456890995.2,286047008.3,P
1456891015.0,286047004.9,P
1456891015.9,286047004.9,N
1456891035.8,286047010.0,Y
1456891055.6,286047002.4,P
1456891075.4,286047004.0,N
1456891095.3,286047002.7,N
1456891115.1,286046998.2,N
1456891116.0,286046998.2,N
1456891135.8,286047000.7,N
1456891155.6,286047002.4,N
1456891175.5,286046998.1,N
1456891195.3,286046998.2,N
